Location: Springfield
(37.2150°N, 93.2980°W)
Time: 12:50:40
(UTC-05:00)

Daily predictions for brighter satellites

Satellite Brightness Start Highest point End
(mag) Time Altitude Azimuth Time Altitude Azimuth Time Altitude Azimuth
Lacrosse 4 Rocket 1.7 20:21:28 10° NNW 20:25:46 59° ENE 20:30:07 10° SE
Cosmos 2242 Rocket 3.9 20:21:48 10° SSE 20:26:06 47° E 20:30:24 10° NNE
Cosmos 1408 3.3 20:23:26 10° NNE 20:26:50 34° E 20:30:10 10° SE
Milstar 3 3.7 20:17:44 10° WSW 20:27:01 44° S 20:33:26 10° ESE
GENESIS II 4.4 20:23:33 10° SSW 20:27:36 82° WNW 20:31:40 10° NNE
Helios 1B rocket 3.5 20:24:55 10° NE 20:28:19 25° E 20:31:42 10° SSE
ATLAS 5 CENTAUR R/B 3.4 20:24:20 10° NNW 20:29:38 31° NE 20:35:17 10° ESE
SEDSat Delta rocket 3.9 20:27:52 10° WSW 20:32:28 44° S 20:37:44 10° ESE
SJ-6B 4.0 20:29:48 10° S 20:33:37 47° W 20:37:33 10° NNW
Cosmos 2279 Rocket 4.3 20:28:05 10° SSE 20:33:57 45° E 20:39:50 10° NNE
ERBS 3.6 20:32:29 10° WNW 20:35:44 38° SW 20:38:58 10° SSE
SL-16 R/B 2.4 20:33:32 10° SSW 20:39:12 82° WNW 20:44:54 10° NNE
Sakura Rocket 4.3 20:41:21 10° SSW 20:44:02 19° SSE 20:46:24 12° SE
CZ-2D R/B 3.2 20:41:49 10° SSE 20:45:42 82° ENE 20:49:35 10° N
Resurs 01 Rocket 1.8 20:44:45 10° S 20:49:11 75° WSW 20:53:39 10° NNW
YAOGAN 6 4.2 20:58:12 16° E 20:59:30 19° ENE 21:02:04 10° NNE
USA 229 DEB 3.8 20:55:43 10° S 21:02:16 53° ESE 21:08:56 10° NE
ALOS 4.3 20:58:18 10° SSW 21:02:17 28° W 21:06:18 10° NW
USA 229 3.8 20:55:50 10° S 21:02:23 52° ESE 21:09:02 10° NE
OAO 3 Rocket 3.4 20:59:30 10° W 21:04:18 59° S 21:07:39 19° ESE
Cosmos 1933 3.2 21:00:47 10° S 21:04:47 73° E 21:08:48 10° N
Sich 1 Rocket 4.4 21:03:13 10° NNE 21:07:17 33° ENE 21:09:37 20° SE
Meteor 2-10 Rocket 3.8 21:07:41 10° S 21:13:23 59° E 21:19:03 10° NNE
Cosmos 1733 Rocket 3.2 21:13:09 10° N 21:17:37 77° W 21:22:03 10° S
Cosmos 2026 Rocket 4.4 21:13:07 10° NNW 21:19:15 65° W 21:25:15 10° S
Helios 1A 3.0 21:15:36 12° S 21:19:33 81° W 21:23:49 10° NNW
Cosmos 2219 Rocket 3.5 21:20:01 19° E 21:20:01 19° E 21:23:29 10° NE
Cosmos 1862 3.6 21:17:28 10° NNW 21:21:30 67° W 21:25:26 10° S
Okean 1-7 4.0 21:21:00 26° ESE 21:21:50 28° E 21:25:35 10° NNE
Cosmos 1862 Rocket 4.2 21:21:05 10° SSW 21:25:29 58° W 21:29:55 10° N
Okean 2 Rocket 4.3 21:26:47 10° NNE 21:30:30 24° ENE 21:30:55 24° E
Meteor 1-26 Rocket 4.2 21:27:05 10° S 21:32:44 74° E 21:38:32 10° NNE
USA 186 4.2 21:35:03 10° SW 21:37:07 19° W 21:39:16 10° NW
Cosmos 1939 Rocket 3.1 21:39:18 24° S 21:41:39 66° W 21:45:37 10° NNW
Cosmos 2263 Rocket 2.8 21:37:22 10° NNW 21:42:45 51° WSW 21:46:54 17° S
Cosmos 1703 Rocket 3.4 21:43:25 23° S 21:46:11 85° E 21:50:36 10° N
Cosmos 968 Rocket 3.4 21:41:26 10° NNW 21:46:40 88° WSW 21:49:07 33° SSE
Cosmos 2237 4.2 21:47:14 10° SSW 21:52:58 87° WNW 21:58:44 10° NNE
Atlas Centaur 2 3.0 21:52:58 10° WSW 21:59:31 51° S 22:02:01 38° SE
Cosmos 2360 Rocket 3.4 21:54:47 10° SW 22:00:08 44° WNW 22:05:33 10° N
MetOp-B 4.2 21:59:17 46° SE 22:00:40 62° ENE 22:05:57 10° N
Envisat 4.2 21:57:21 13° SSW 22:01:31 38° W 22:06:15 10° NNW
USA 234 3.3 21:59:28 37° ESE 22:02:16 74° NE 22:08:48 10° NW
COSMOS 2428 2.6 21:56:42 10° SSW 22:02:23 86° ESE 22:08:07 10° NNE
Lacrosse 4 Rocket 4.3 22:02:33 10° W 22:03:57 11° WSW 22:05:22 10° WSW
Meteor 1-10 Rocket 4.4 22:06:13 48° SE 22:07:14 54° E 22:12:56 10° NNE
Cosmos 2266 Rocket 4.1 22:02:03 10° N 22:08:23 79° W 22:11:42 30° S
H-2A R/B 2.9 22:09:10 32° ENE 22:09:10 32° ENE 22:13:23 10° N
Cosmos 1867 4.0 22:04:33 10° NW 22:09:53 56° WSW 22:11:34 39° S
MOS 1-B Rocket 4.0 22:09:36 48° ESE 22:10:50 57° ENE 22:16:19 10° N
Cosmos 2221 Rocket 3.8 22:09:27 40° SSW 22:10:55 68° W 22:15:20 10° N
YAOGAN 11 3.9 22:11:08 74° E 22:11:12 74° ENE 22:15:32 10° N
NOAA 11 4.1 22:10:52 52° SSE 22:12:17 83° ENE 22:17:47 10° NNW
ATLAS 5 CENTAUR R/B 3.1 22:08:38 10° NW 22:14:34 50° WSW 22:17:14 32° S
Cosmos 1606 4.2 22:17:05 27° NNE 22:17:05 27° NNE 22:18:59 10° NNE
NOSS 0 Rocket 4.3 22:16:18 42° E 22:16:18 42° E 22:21:16 10° NE
Cosmos 1844 4.1 22:10:33 10° N 22:15:59 45° ENE 22:16:28 44° ENE
SEDSat Delta rocket 4.2 22:13:32 10° WSW 22:18:07 39° SSW 22:18:07 39° SSW
ARGOS 3.0 22:19:00 64° ESE 22:19:37 72° ENE 22:25:00 10° N
Meteor 1-25 Rocket 4.1 22:16:12 10° N 22:21:47 81° W 22:23:01 55° S
Cosmos 1570 Rocket 4.0 22:22:48 63° ENE 22:22:48 63° ENE 22:27:37 10° NNE
ERS-1 Rocket 3.6 22:22:02 37° SSW 22:23:34 51° W 22:28:27 10° NNW
SeaSat 1 2.9 22:24:45 47° ENE 22:24:45 47° ENE 22:29:25 10° NNW
H-2A R/B 3.8 22:31:01 23° NE 22:31:01 23° NE 22:33:20 10° N
Meteor 1-20 Rocket 4.2 22:25:41 10° NNW 22:31:18 76° W 22:32:18 60° SSW
Cosmos 2208 Rocket 4.0 22:33:32 68° ENE 22:33:32 68° ENE 22:38:20 10° NNE
Cosmos 1244 Rocket 4.3 22:29:16 10° N 22:35:34 79° E 22:36:21 68° SE
Cosmos 2237 Rocket 3.0 22:40:20 39° NE 22:40:20 39° NE 22:44:06 10° NNE
SL-08 RB Rocket 4.0 22:39:25 65° NNW 22:39:25 65° NNW 22:43:17 10° NNW
SPOT 5 3.0 22:39:13 68° W 22:39:13 68° W 22:43:40 10° NNW
Cosmos 1553 Rocket 4.0 22:41:44 63° E 22:41:44 63° E 22:47:43 10° NNE
Cosmos 2333 Rocket 2.1 22:41:58 81° ENE 22:41:58 81° ENE 22:47:36 10° NNE
Cosmos 1844 Rocket 2.6 22:38:47 10° NNW 22:44:21 77° WSW 22:44:24 77° WSW
Meteor 2-6 Rocket 4.3 22:43:44 65° SSW 22:44:39 80° W 22:50:38 10° N
Cosmos 2278 Rocket 2.9 22:40:34 10° N 22:45:29 43° NE 22:45:29 43° NE
NOSS 3-1 (C) 3.6 22:41:21 12° SW 22:46:39 68° NW 22:52:59 10° NNE
Gbstr 26 Del rocket 4.3 22:45:20 10° SW 22:52:59 76° SE 23:01:08 10° NE
ASTEX 1 4.2 22:54:58 45° NNE 22:54:58 45° NNE 22:58:32 10° N
CZ-4C R/B 3.2 22:48:56 10° NNW 22:55:58 53° NE 22:57:01 50° E
SPOT 1/Viking Rocket 3.8 22:57:12 66° WNW 22:57:12 66° WNW 23:01:58 10° NNW
Cosmos 2219 Rocket 2.9 23:01:36 40° WSW 23:03:07 51° WNW 23:08:35 10° NNE
NOSS 3-1 (A) 3.5 23:02:34 62° WSW 23:03:21 71° NW 23:09:44 10° NNE
ATLAS 2AS CENTAUR R/B 4.4 23:08:09 22° ENE 23:08:09 22° ENE 23:11:23 10° NE
S3M 4.0 23:13:05 75° WNW 23:13:05 75° WNW 23:19:04 10° N
Terra 3.2 23:23:55 37° NNW 23:23:55 37° NNW 23:26:46 10° NNW
Meteor 1-27 Rocket 4.5 23:29:00 48° WNW 23:29:00 48° WNW 23:33:57 10° N
ATLAS 3B R/B 4.3 23:28:49 10° N 23:33:56 22° NE 23:35:09 21° NE
H-2A R/B 4.1 23:14:33 10° W 23:43:19 43° SW 23:43:19 43° SW
H-2A R/B 4.0 23:49:47 22° WNW 23:49:47 22° WNW 23:52:26 10° NW
Atlas Centaur 2 4.3 23:41:51 10° W 23:44:38 23° WSW 23:44:38 23° WSW
